Погода Молыгино

Погода Молыгино : погода сейчас, прогноз погоды и архив. Всё, что Вы хотите узнать о погоде Молыгино!

Поиск расширенной информации на нашем сайте:

Другие новости

Новости СМИ2

Главная страница сайта

Новости сайта

03.07.2017

Напоминаем, что на нашем специализированном сайте Метеоцентр.Азия вы можете получить высокодетализированные автоматические прогнозы погоды по пунктам России, СНГ и мира в авиационном формате (включающие направление и скорость ветра, видимость, явления погоды, количество и форму облачности, нижнюю и верхнюю границу облачности).


Погода Молыгино - сегодня

Время (UTC), дата Ветер
(°,м/с) 
Видим.   Явления Облачность Т
(°С)
Тd
(°С)
f(%) Тe
(°С)
Pmin
(гПа)
dP
(гПа)
Po
(мм)
O2
(г/м3)
Тmin Tmax R s Состояние
почвы
09 22.11.17 040 (СВ) н/о    н/о 
-13.2 -15.1 86 -13  1028.9  3.9  755  321           
12 22.11.17 040 (СВ) н/о    н/о 
-14.2 -16.1 85 -14  1032.1  2.9  757  323    -9.2  0.7     
15 22.11.17 040 (СВ) н/о    н/о 
-15.1 -16.9 86 -15  1033  0.8  757  324           
18 22.11.17 040 (СВ) н/о    н/о 
-16.2 -18 86 -19  1033.7  0.6  758  326           
21 22.11.17 050 (СВ) н/о    н/о 
-16.7 -18.5 86 -17  1033.9  0.1  758  327           
00 23.11.17 040 (СВ) н/о    н/о 
-17.5 -19.4 85 -18  1033.7  -0.2  758  328  -17.5    0.6  24  равномерный
сухой снег
100% 
03 23.11.17 040 (СВ) н/о    н/о 
-17.5 -19.6 84 -18  1033.5  -0.2  758  328  -17.7         
06 23.11.17 030 (СВ) н/о    н/о 
-16.8 -19.4 80 -19  1032.6  -0.8  757  327           
09 23.11.17 050 (СВ) н/о    н/о 
-16.9 -18.7 86 -17  1031.5  -1  756  326           
12 23.11.17 050 (СВ) н/о    н/о 
-17.3 -19.1 86 -17  1030.3  -1.2  755  326    -16.7  0.6     
15 23.11.17 040 (СВ) н/о    н/о 
-17.5 -19.4 85 -20  1029.8  -0.6  755  327           
18 23.11.17 040 (СВ) н/о    н/о 
-18 -20 84 -18  1029.5  -0.3  755  327           
21 23.11.17 040 (СВ) н/о    н/о 
-19.2 -21.4 83 -22  1029.7  0.1  755  329           
00 24.11.17 040 (СВ) н/о    н/о 
-19.3 -21.6 82 -22  1030.3  0.6  755  329  -19.4    0.5  25  равномерный
сухой снег
100% 
03 24.11.17 040 (СВ) н/о    н/о 
-19.3 -21.7 81 -22  1030.4  0.1  755  329           
06 24.11.17 030 (СВ) н/о    н/о 
-18.7 -21.6 78 -19  1030.2  -0.2  755  328           
09 24.11.17 050 (СВ) н/о    н/о 
-18.6 -20.9 82 -19  1029.9  -0.3  755  328           
12 24.11.17 060 (СВ) н/о    н/о 
-18.8 -21 83 -21  1030.1  0.3  755  328    -18.4  0.9     
15 24.11.17 050 (СВ) н/о    н/о 
-18.8 -20.8 84 -21  1029.6  -0.5  755  328           
18 24.11.17 050 (СВ) н/о    н/о 
-18.7 -20.5 86 -19  1028.5  -1.1  754  328           
21 24.11.17 070 (В) н/о    н/о 
-18.4 -20.1 86 -19  1025.6  -2.9  752  326           
00 25.11.17 140 (ЮВ) н/о    н/о 
-16.1 -18.1 85 -18  1021.9  -3.4  749  322  -18.9    27  равномерный
сухой снег
100% 
03 25.11.17 150 (ЮВ) н/о    н/о 
-15.5 -17.1 88 -19  1015.9  -5.7  745  320           
06 25.11.17 120 (ЮВ) н/о    н/о 
-12.1 -13.9 86 -12  1009.6  -5.9  740  313           
09 25.11.17 020 (С) н/о    н/о 
-11.8 -12.9 91 -12  1003.3  -6.1  736  311           
Время (UTC), дата Ветер
(°,м/с) 
Видим.   Явления Облачность Т
(°С)
Тd
(°С)
f(%) Тe
(°С)
Pmin
(гПа)
dP
(гПа)
Po
(мм)
O2
(г/м3)
Тmin Tmax R s Состояние
почвы

Для получения пояснительной информации подведите курсор к названию столбца.

ПОГОДА Молыгино - архив

Всё, что Вы хотите узнать о погоде Молыгино - удобно и подробно!

Выберите нужную дату (начиная с 1 января 2015* года) и нажмите кнопку "Найти".
Будут отображены архивные сводки погоды по пункту Молыгино, начиная с указанной даты.


Отображать данные в формате CSV (для использования в таблицах Excel)


Внимание! Наш архив погоды предназначен исключительно для личного некоммерческого использования в познавательных целях. Если Вам необходимы официальные справки о состоянии погоды (для производственных, юридических, коммерческих и т.п. целей), обращайтесь в органы Росгидромета.

*Примечание: данная дата относится к архиву по метеостанциям СССР (Россия, СНГ, Балтия).
Архив по метеостанциям Зарубежной Европы и Азии (кроме Китая) хранится 10 дней, по другим регионам земного шара (Китай, Африка, Америка, Австралия, Океания) - 1 день.

Молыгино - район местоположения метеостанции


Название, широта, долгота, высота метеостанции:
Молыгино 58.2°ш. 94.8°д. 161 м над ур. моря [Российская Федерация]

Дополнительная информация

В oтличие oт бoльшинства пoгoдных сайтoв мы публикуем пoдрoбную метеoинфoрмацию в детальнoм прoфессиoнальнoм фoрмате.

Характеристики температуры и влажнoсти вoздуха измеряются на высoте 2 м в тени вдали oт зданий и деревьев.
Скoрoсть ветра измеряется на высoте 10 м (на урoвне рoста челoвека скoрoсть ветра ниже в 1.5-2 раза). Если метеoстанция нахoдится в гoрoде или в лесу, тo скoрoсть ветра занижена на 2-4 м/с пo сравнению с oткрытым местoм. Скoрoсть ветра над акватoриями крупных рек и oзёр, а также на вершинах хoлмoв на 2-5 м/с выше, чем в oбычных услoвиях.
Атмoсфернoе давление в разных тoчках местнoсти мoжет значительнo oтличаться oт давления на метеoстанции, в зависимoсти oт услoвий рельефа (при пoдъёме на 10 м давление пoнижается примернo на 1 мм рт.ст.).